Погода в Переславле-Залесском

Россия / Ярославская область     56°44′22″N   38°51′10″E
темп.,
°C
ветер,
м/с
пор.,
м/с
влажн.,
%
обл.,
%
осадки,
мм/ч
давл.,
гПа
погр.,
м
25 мая, ср
ср2500:00−1сз23965 0.0 101364
03:00−2сз22975 0.0 101534
06:00+1сз25865 0.0 1015204
09:00+7сз455825 0.0 10141185
12:00+10сз444698 0.0 10141882
15:00+11сз444592 0.1 10131870
18:00+10сз2452100 0.0 10131274
21:00+7з226598 0.0 101332
26 мая, чт
чт2600:00+4з259399 0.0 1012118
03:00+4зюз2595100 0.0 1012150
06:00+5з359074 0.0 1010260
09:00+10зсз2469100 0.0 1008704
12:00+14з255019 0.0 10071570
15:00+17зюз35409 0.0 10042091
18:00+17ююв1254100 0.0 1002672
21:00+11ююв2481100 0.1 1000132
27 мая, пт
пт2700:00+9зюз2396100 0.1 99962
03:00+9зсз2398100 0.1 997105
06:00+9зсз3898100 0.3 997371
09:00+10зсз4795100 2.4 997413
12:00+12зюз4688100 1.9 998645
15:00+13з4787100 3.6 999905
18:00+12з488827 1.8 999698
21:00+9юз310965 2.6 1000256
28 мая, сб
сб2800:00+7юз399744 0.0 1000220
03:00+6ююз36978 0.0 999116
06:00+7ююз269499 0.0 998182
09:00+9ю4693100 0.7 996483
12:00+8зюз5109149 2.5 998950
15:00+10зюз7117836 3.4 10001333
18:00+10зюз6128148 0.9 10011414
21:00+8зюз6128687 1.2 1003865
29 мая, вс
вс2900:00+7зюз61093100 0.4 10041119
03:00+7юз61195100 1.6 10051100
06:00+7юз5119699 3.0 1007593
09:00+9зюз61086100 3.8 1009867
12:00+13зюз6968100 0.6 10101484
15:00+15зюз595863 0.9 10111809
18:00+16з385815 0.0 10121646
21:00+12ююз367297 0.0 1014118